Simultaneous Nadir Overpasses (SNOs) Predictions

Prediction of SNOs between FY3D and LANDSAT-8 Satellite Orbit:

Table of predicted SNOs for the next 14.0 days since TLE Epoch: 6/25/2022
Index Date (FY3D) Time (FY3D) Lat,Lon (FY3D) SZA (FY3D ) Date (LANDSAT-8) Time (LANDSAT-8) Lat,Lon (LANDSAT-8) SZA (LANDSAT-8 ) Distance(km) Time Diff (sec)
1 06/25/2022 14:46:27 72.71, -43.87 49.26 06/25/2022 14:47:34 72.57, -41.53 49.10 79.00 67
2 06/25/2022 15:36:56 -71.92, 125.01 131.55 06/25/2022 15:37:14 -71.92, 124.92 131.55 3.02 18
3 06/25/2022 16:27:41 71.82, -67.49 48.35 06/25/2022 16:26:41 71.83, -67.59 48.36 3.36 60
4 06/28/2022 06:13:29 -72.70, -95.59 130.64 06/28/2022 06:14:36 -72.63, -93.17 130.74 80.57 67
5 06/28/2022 07:04:01 71.94, 73.23 48.57 06/28/2022 07:04:14 71.96, 73.24 48.59 2.07 13
6 06/28/2022 07:54:44 -71.87,-119.33 131.50 06/28/2022 07:53:44 -71.84,-119.33 131.53 3.52 60
7 06/30/2022 21:40:32 72.57,-147.07 49.37 06/30/2022 21:41:40 72.50,-145.17 49.28 63.76 68
8 06/30/2022 22:31:04 -71.94, 21.49 131.27 06/30/2022 22:31:18 -71.96, 21.48 131.26 2.01 14
9 06/30/2022 23:21:49 71.84,-171.01 48.62 06/30/2022 23:20:45 71.86,-171.04 48.65 3.14 64
10 07/03/2022 13:07:36 -72.63, 161.07 130.37 07/03/2022 13:08:44 -72.50, 163.06 130.53 67.68 68
11 07/03/2022 13:58:10 71.96, -30.30 48.95 07/03/2022 13:58:19 71.97, -30.25 48.95 2.10 9
12 07/03/2022 14:48:52 -71.85, 137.23 131.17 07/03/2022 14:47:49 -71.86, 137.19 131.16 1.98 63
13 07/06/2022 04:34:38 72.45, 109.68 49.69 07/06/2022 04:35:48 72.34, 111.01 49.55 46.43 70
14 07/06/2022 05:25:13 -71.98, -82.07 130.79 07/06/2022 05:25:23 -71.96, -82.03 130.82 2.53 10
15 07/06/2022 06:15:58 71.87, 85.44 49.10 07/06/2022 06:14:50 71.86, 85.44 49.09 1.71 68
16 07/08/2022 20:01:40 -72.47, 57.91 130.00 07/08/2022 20:02:50 -72.37, 59.31 130.13 48.40 70
17 07/08/2022 20:52:17 71.96,-133.78 49.48 07/08/2022 20:52:23 71.95,-133.80 49.46 1.79 6
18 07/08/2022 21:43:00 -71.89, 33.66 130.59 07/08/2022 21:41:52 -71.89, 33.74 130.59 2.76 68



Historial Predications of SNOs between FY3D and LANDSAT-8
